EW7448 Weather Reports


Display with metric or nautical units.
time (UTC)temp
F
wind
direction
speed
MPH
gust
MPH
rain 1hr
in
rain 24hr
in
rain mn
in
humidity
%
barometer
mb
20260902091547 76 358 0.0 0.0 0.00 0.00 0.00 99 1012.8
20260902090037 76 358 0.0 0.0 0.00 0.00 0.00 98 1012.6
20260902084536 76 358 0.0 1.0 0.00 0.00 0.00 98 1012.5
20260902083035 76 358 0.0 0.0 0.00 0.00 0.00 98 1012.2
20260902081533 76 359 0.0 0.0 0.00 0.00 0.00 98 1012.5
20260902080033 76 358 0.0 0.0 0.00 0.00 0.00 98 1012.4
20260902074534 76 358 0.0 0.0 0.00 0.00 0.00 98 1012.5
20260902073034 77 358 0.0 0.0 0.00 0.00 0.00 98 1012.5
20260902071530 77 358 0.0 0.0 0.00 0.00 0.00 98 1012.6
20260902070029 76 358 0.0 0.0 0.00 0.00 0.00 98 1012.5
20260902064528 77 358 0.0 1.0 0.00 0.00 0.00 98 1012.7
20260902063006 77 308 0.0 0.0 0.00 0.00 0.00 98 1012.6
20260902061509 76 309 0.0 0.0 0.00 0.00 0.00 98 1012.8
20260902060004 76 308 0.0 0.0 0.00 0.00 0.00 98 1012.8
20260902054502 77 309 0.0 0.0 0.00 0.00 0.00 98 1013.0
20260902053003 77 47 0.0 0.0 0.00 0.00 0.00 98 1012.9
20260902051501 77 47 0.0 0.0 0.00 0.00 0.00 98 1013.1
20260902050100 77 46 0.0 0.0 0.00 0.00 0.00 97 1013.1
20260902044557 77 47 0.0 0.0 0.00 0.00 0.00 97 1013.1
20260902043058 77 47 0.0 0.0 0.00 0.00 0.00 97 1013.1
20260902041555 77 47 0.0 0.0 0.00 0.00 0.00 97 1013.2
20260902040054 77 46 0.0 0.0 0.00 0.00 0.00 97 1013.2
20260902034601 77 46 0.0 1.0 0.00 0.00 0.00 97 1013.5
20260902033105 77 47 0.0 0.0 0.00 0.00 0.00 97 1013.6
20260902031556 77 47 0.0 0.0 0.00 0.00 0.00 97 1013.7
20260902030052 77 47 0.0 0.0 0.00 0.00 0.00 96 1013.9
20260902024556 77 46 0.0 1.0 0.00 0.00 0.00 96 1014.0
20260902023051 77 47 0.0 0.0 0.00 0.00 0.00 96 1014.0
20260902021603 77 46 0.0 0.0 0.00 0.00 0.00 96 1014.0
20260902020050 77 47 0.0 0.0 0.00 0.00 0.00 96 1013.9
20260902014551 77 47 0.0 0.0 0.00 0.00 0.00 95 1013.8
20260902013050 78 47 0.0 0.0 0.00 0.00 0.00 95 1013.6
20260902011549 78 47 0.0 0.0 0.00 0.00 0.00 95 1013.5
20260902010051 79 46 0.0 1.0 0.00 0.00 0.00 95 1013.4
20260902004548 79 47 0.0 1.0 0.00 0.00 0.00 94 1013.2
20260902003048 80 51 0.0 3.0 0.00 0.00 0.00 94 1013.4
20260902001548 82 49 0.0 3.0 0.00 0.00 0.00 91 1013.4
20260902000047 82 33 0.0 2.0 0.00 0.00 0.00 93 1013.4
20260901234554 82 29 0.0 4.0 0.00 0.00 0.00 92 1013.4
20260901233050 82 11 2.0 4.0 0.00 0.00 0.00 92 1013.3
20260901231546 83 22 0.0 4.0 0.00 0.00 0.00 92 1013.3
20260901230045 83 57 0.0 6.0 0.00 0.00 0.00 91 1013.1
20260901224554 83 37 2.0 6.0 0.00 0.00 0.00 90 1013.1
20260901223043 83 352 1.0 5.0 0.00 0.00 0.00 90 1013.0
20260901221545 84 51 0.0 8.0 0.00 0.00 0.00 90 1013.0
20260901220043 84 51 2.0 8.0 0.00 0.00 0.00 90 1012.9
20260901214545 84 77 3.0 9.0 0.00 0.00 0.00 89 1012.7
20260901213045 84 21 4.0 9.0 0.00 0.00 0.00 89 1012.5
20260901211540 84 6 5.0 11.0 0.00 0.00 0.00 87 1012.5
20260901210038 85 45 4.0 9.0 0.00 0.00 0.00 87 1012.8
20260901204537 85 41 1.0 8.0 0.00 0.00 0.00 86 1012.6
20260901203041 86 51 4.0 12.0 0.00 0.00 0.00 85 1012.8
20260901201535 86 17 2.0 9.0 0.00 0.00 0.00 86 1012.8
20260901200044 86 51 4.0 10.0 0.00 0.00 0.00 85 1013.0
20260901194539 87 15 4.0 8.0 0.00 0.00 0.00 83 1013.2
20260901193033 87 49 3.0 10.0 0.00 0.00 0.00 85 1013.2
20260901191539 87 124 2.0 7.0 0.00 0.00 0.00 82 1013.1
20260901190041 87 48 3.0 9.0 0.00 0.00 0.00 83 1013.4
20260901184535 87 46 3.0 12.0 0.00 0.00 0.00 83 1013.4
20260901183034 88 11 3.0 10.0 0.00 0.00 0.00 82 1013.7
20260901181532 88 24 4.0 10.0 0.00 0.00 0.00 82 1013.8
20260901180032 88 53 2.0 11.0 0.00 0.00 0.00 83 1013.8
20260901174537 87 130 4.0 12.0 0.00 0.00 0.00 84 1014.1
20260901173031 88 11 4.0 10.0 0.00 0.00 0.00 84 1014.3
20260901171528 88 55 2.0 8.0 0.00 0.00 0.00 83 1014.4
20260901170026 89 49 2.0 9.0 0.00 0.00 0.00 81 1014.5
20260901164524 88 26 2.0 8.0 0.00 0.00 0.00 81 1014.6
20260901163023 88 49 4.0 10.0 0.00 0.00 0.00 79 1014.7
20260901161522 88 51 3.0 9.0 0.00 0.00 0.00 81 1014.7
20260901160023 88 345 2.0 10.0 0.00 0.00 0.00 81 1014.7
20260901154520 87 74 4.0 9.0 0.00 0.00 0.00 81 1014.8
20260901153020 87 17 4.0 8.0 0.00 0.00 0.00 81 1015.1
20260901151529 88 54 3.0 9.0 0.00 0.00 0.00 82 1014.9
20260901150021 88 98 2.0 7.0 0.00 0.00 0.00 82 1014.9
20260901144520 88 31 1.0 7.0 0.00 0.00 0.00 82 1014.9
20260901143012 87 56 0.0 9.0 0.00 0.00 0.00 85 1014.6
20260901141508 85 4 0.0 4.0 0.00 0.00 0.00 88 1014.6
20260901140005 84 45 0.0 2.0 0.00 0.00 0.00 89 1014.5
20260901134504 83 38 0.0 1.0 0.00 0.00 0.00 91 1014.5
20260901133004 84 15 0.0 3.0 0.00 0.00 0.00 90 1014.4
20260901131501 84 346 0.0 2.0 0.00 0.00 0.00 92 1014.4
20260901130058 82 356 0.0 4.0 0.00 0.00 0.00 95 1014.4
20260901124553 81 24 0.0 3.0 0.00 0.00 0.00 98 1014.2
20260901123103 79 18 0.0 1.0 0.00 0.00 0.00 99 1014.2
20260901121602 78 10 0.0 1.0 0.00 0.00 0.00 99 1014.1
20260901120048 77 9 0.0 2.0 0.00 0.00 0.00 99 1013.9
20260901114546 77 328 0.0 1.0 0.00 0.00 0.00 99 1013.9
20260901113049 77 242 0.0 0.0 0.00 0.00 0.00 99 1013.6
20260901111547 76 242 0.0 1.0 0.00 0.00 0.00 99 1013.3
20260901110044 76 242 0.0 0.0 0.00 0.00 0.00 98 1013.1
20260901104555 76 242 0.0 0.0 0.00 0.00 0.00 98 1013.1
20260901103043 76 242 0.0 0.0 0.00 0.00 0.00 98 1013.1
20260901101546 76 242 0.0 0.0 0.00 0.00 0.00 98 1013.0
20260901100058 76 242 0.0 0.0 0.00 0.00 0.00 98 1013.0
20260901094541 76 242 0.0 0.0 0.00 0.00 0.00 98 1013.0
20260901093043 76 242 0.0 1.0 0.00 0.00 0.00 98 1012.9